This demonstration page uses our WeatherBlox Daily Observations layout. Learn more.

Left ArrowRight Arrow

39.29038, -76.61219

Hourly Observations for November 3, 2018

Temp ( °F °C ) Dew Point ( °F °C ) Humidity (%) Winds ( mph kmh ) Pressure ( in mb ) Visibility ( mi km ) Precip ( " mm )
12:54 am 00:54 undefined 58 14.4 52 11.1 81 81 undefined N/A 29.67 1005 N/A 0.00 0.00
1:54 am 01:54 undefined 58 14.4 53 11.7 84 84 undefined N/A 29.67 1005 N/A 0.00 0.00
2:54 am 02:54 undefined 57 13.9 50 10 78 78 undefined N/A 29.67 1005 N/A 0.00 0.00
3:54 am 03:54 undefined 56 13.3 50 10 81 81 undefined N/A 29.68 1005 N/A 0.00 0.00
4:54 am 04:54 undefined 55 12.8 45 7.2 69 69 undefined N/A 29.67 1005 N/A 0.00 0.00
5:54 am 05:54 undefined 54 12.2 43 6.1 67 67 undefined N/A 29.72 1006 N/A 0.00 0.00
6:54 am 06:54 undefined 51 10.6 45 7.2 80 80 undefined N/A 29.76 1008 N/A 0.03 0.76
7:54 am 07:54 undefined 51 10.6 42 5.6 71 71 undefined N/A 29.78 1009 N/A 0.00 0.00
8:54 am 08:54 undefined 52 11.1 41 5 66 66 undefined N/A 29.84 1010 N/A 0.00 0.00
9:54 am 09:54 undefined 54 12.2 39 3.9 57 57 undefined N/A 29.89 1012 N/A 0.00 0.00
10:54 am 10:54 undefined 55 12.8 37 2.8 51 51 undefined N/A 29.94 1014 N/A 0.00 0.00
11:54 am 11:54 undefined 57 13.9 37 2.8 47 47 undefined N/A 29.99 1016 N/A 0.00 0.00
12:54 pm 12:54 undefined 57 13.9 36 2.2 45 45 undefined N/A 30.01 1016 N/A 0.00 0.00
1:54 pm 13:54 undefined 59 15 36 2.2 42 42 undefined N/A 30.04 1017 N/A 0.00 0.00
2:54 pm 14:54 undefined 58 14.4 34 1.1 41 41 undefined N/A 30.06 1018 N/A 0.00 0.00
3:54 pm 15:54 undefined 57 13.9 34 1.1 42 42 undefined N/A 30.08 1019 N/A 0.00 0.00
4:54 pm 16:54 undefined 57 13.9 32 0 39 39 undefined N/A 30.13 1020 N/A 0.00 0.00
5:54 pm 17:54 undefined 55 12.8 32 0 42 42 undefined N/A 30.18 1022 N/A 0.00 0.00
6:54 pm 18:54 undefined 54 12.2 32 0 43 43 undefined N/A 30.23 1024 N/A 0.00 0.00
7:54 pm 19:54 undefined 53 11.7 32 0 45 45 undefined N/A 30.28 1025 N/A 0.00 0.00
8:54 pm 20:54 undefined 51 10.6 34 1.1 52 52 undefined N/A 30.31 1026 N/A 0.00 0.00
9:54 pm 21:54 undefined 50 10 34 1.1 54 54 undefined N/A 30.33 1027 N/A 0.00 0.00
10:54 pm 22:54 undefined 50 10 33 0.6 52 52 undefined N/A 30.35 1028 N/A 0.00 0.00
11:54 pm 23:54 undefined 48 8.9 33 0.6 56 56 undefined N/A 30.38 1029 N/A 0.00 0.00

Powered by AerisWeather